SAS988 RKSI-EKCH

Flight info

Callsign SAS988
Flight time N/A
Altitude 21700
Route NOPIK2Y NOPIK Y697 AGAVO/K0815S0660 A591 IKEKA W4 FZ/K0907S1040 W4 HCH W200 DOVIV/K0909S1100 W55 PAMRU W34 VYK B215 LEBOM W104 VEXEB W47 IDSOT W48 DKO W66 NUKTI B215 POVEK/K0902S1160 B215 FKG A368 SARIN/K0898F380 N161 ABDUN/K0895F400 N161 GASBI/N0487F400 N161 LEYLA N644 ADEKI DCT BADIR DCT LAGAS DCT NOLGA UN61 TBN UM11 CRM UL746 ODERO DCT DINRO DCT KARIL DCT KEKED DCT LENOV DCT OKENO DCT PEPOX DCT BABEN L617 KOLOB DCT ROE M743 TIDVU
Aircraft A359/H-SDE2E3GHIJ3J4J5LM1ORWXY/LB1D1

Departure

Time 2026-05-03 22:04
Airport Incheon International Airport (RKSI)

Arrival

Time N/A
Airport Copenhagen Kastrup Airport (EKCH)
Time Latitude Longitude Altitude Speed Heading
2026-05-03 21:34 37.44617 126.44696 39 ft 0 kts 94°
2026-05-03 21:50 37.44618 126.44680 36 ft 2 kts 95°
2026-05-03 21:50 37.44620 126.44660 36 ft 2 kts 97°
2026-05-03 21:50 37.44622 126.44640 37 ft 2 kts 101°
2026-05-03 21:51 37.44626 126.44620 39 ft 2 kts 108°
2026-05-03 21:51 37.44628 126.44613 37 ft 2 kts 112°
2026-05-03 21:51 37.44634 126.44599 37 ft 2 kts 122°
2026-05-03 21:51 37.44645 126.44586 37 ft 2 kts 174°
2026-05-03 21:52 37.44658 126.44584 37 ft 1 kts 187°
2026-05-03 21:52 37.44660 126.44584 37 ft 0 kts 188°
2026-05-03 22:01 37.44659 126.44584 39 ft 1 kts 188°
2026-05-03 22:01 37.44641 126.44581 39 ft 5 kts 188°
2026-05-03 22:02 37.44585 126.44577 39 ft 10 kts 177°
2026-05-03 22:02 37.44543 126.44529 39 ft 10 kts 244°
2026-05-03 22:02 37.44506 126.44441 39 ft 13 kts 238°
2026-05-03 22:02 37.44455 126.44346 39 ft 13 kts 233°
2026-05-03 22:03 37.44403 126.44256 39 ft 13 kts 234°
2026-05-03 22:03 37.44370 126.44170 39 ft 8 kts 286°
2026-05-03 22:03 37.44406 126.44120 39 ft 8 kts 320°
2026-05-03 22:03 37.44499 126.44036 39 ft 30 kts 324°
2026-05-03 22:04 37.44833 126.43737 39 ft 86 kts 324°
2026-05-03 22:04 37.45464 126.43175 39 ft 134 kts 324°
2026-05-03 22:04 37.46337 126.42387 98 ft 170 kts 323°
2026-05-03 22:04 37.47296 126.41511 665 ft 166 kts 323°
2026-05-03 22:05 37.48195 126.40579 1299 ft 166 kts 314°
2026-05-03 22:05 37.48879 126.39489 2147 ft 152 kts 309°
2026-05-03 22:05 37.49478 126.38415 2701 ft 148 kts 309°
2026-05-03 22:05 37.50076 126.37322 3061 ft 153 kts 308°
2026-05-03 22:06 37.50690 126.36211 3425 ft 157 kts 308°
2026-05-03 22:06 37.51062 126.34865 3595 ft 178 kts 281°
2026-05-03 22:06 37.50909 126.33220 3809 ft 199 kts 263°
2026-05-03 22:06 37.50651 126.31440 3987 ft 215 kts 269°
2026-05-03 22:07 37.50510 126.29503 4245 ft 229 kts 273°
2026-05-03 22:07 37.50505 126.27443 4533 ft 241 kts 277°
2026-05-03 22:07 37.50560 126.25277 4854 ft 254 kts 276°
2026-05-03 22:07 37.50617 126.23008 5255 ft 263 kts 276°
2026-05-03 22:08 37.50699 126.20704 5891 ft 262 kts 278°
2026-05-03 22:08 37.50753 126.18420 6617 ft 260 kts 269°
2026-05-03 22:08 37.50263 126.16222 7413 ft 264 kts 250°
2026-05-03 22:08 37.49222 126.14311 8214 ft 267 kts 233°
2026-05-03 22:09 37.47924 126.12615 8821 ft 270 kts 234°
2026-05-03 22:09 37.46725 126.10788 9363 ft 271 kts 240°
2026-05-03 22:09 37.45678 126.08814 9915 ft 272 kts 245°
2026-05-03 22:10 37.43617 126.04616 10598 ft 296 kts 244°
2026-05-03 22:10 37.42484 126.02384 10842 ft 309 kts 243°
2026-05-03 22:10 37.41356 126.00060 11095 ft 319 kts 249°
2026-05-03 22:10 37.40730 125.97390 11322 ft 321 kts 269°
2026-05-03 22:11 37.40635 125.94557 11583 ft 330 kts 273°
2026-05-03 22:11 37.40623 125.91656 11852 ft 339 kts 273°
2026-05-03 22:11 37.40607 125.88675 12287 ft 343 kts 273°
2026-05-03 22:11 37.40581 125.85657 12804 ft 345 kts 272°
2026-05-03 22:12 37.40546 125.82632 13307 ft 347 kts 272°
2026-05-03 22:12 37.40507 125.79583 13791 ft 349 kts 272°
2026-05-03 22:12 37.40467 125.76524 14212 ft 351 kts 272°
2026-05-03 22:12 37.40426 125.73436 14598 ft 355 kts 272°
2026-05-03 22:13 37.40386 125.70313 15009 ft 358 kts 272°
2026-05-03 22:13 37.40346 125.67208 15444 ft 360 kts 272°
2026-05-03 22:13 37.40304 125.64041 15872 ft 362 kts 272°
2026-05-03 22:13 37.40262 125.60859 16278 ft 365 kts 272°
2026-05-03 22:14 37.40218 125.57648 16702 ft 368 kts 272°
2026-05-03 22:14 37.40174 125.54416 17132 ft 371 kts 272°
2026-05-03 22:14 37.40128 125.51165 17535 ft 373 kts 272°